Weather History for KBUF - March, 2012

Change the Weather History Date:

Friday, March 23, 2012

  Actual Average Record
Temperature  
Mean Temperature 63 °F 36 °F  
Max Temperature 70 °F 45 °F 78 °F (1966)
Min Temperature 55 °F 28 °F 2 °F (1885)
Degree Days  
Heating Degree Days 2 29  
Month to date heating degree days 361 747  
Since 1 July heating degree days 4314 5491  
Cooling Degree Days 0 0  
Month to date cooling degree days 8 0  
Year to date cooling degree days 8 0  
Growing Degree Days 12 (Base 50)    
Moisture  
Dew Point 46 °F    
Average Humidity 60    
Maximum Humidity 83    
Minimum Humidity 37    
Precipitation  
Precipitation 0.00 in 0.10 in 0.74 in (1991)
Month to date precipitation 1.21 2.10  
Year to date precipitation 7.36 7.77  
Snow  
Snow 0.00 in 0.40 in 6.80 in (2011)
Month to date snowfall 0.9 10.7  
Since 1 July snowfall 35.1 89.5  
Snow Depth 0.00 in    
Sea Level Pressure  
Sea Level Pressure 30.09 in    
Wind  
Wind Speed 15 mph (ENE)    
Max Wind Speed 23 mph    
Max Gust Speed 29 mph    
Visibility 10 miles    
Events      
T = Trace of Precipitation, MM = Missing Value Source: NWS Daily Summary

Daily Weather History Graph

Daily Weather History Graph

Search for Another Location

Airport or City:

Trip Planner

Search our weather history database for the weather conditions in past years. The results will help you decide how hot, cold, wet, or windy it might be!

Date:

Astronomy

Mar. 23, 2012 Rise Set
Actual Time 7:12 AM EDT 7:31 PM EDT
Civil Twilight 6:43 AM EDT 7:59 PM EDT
Nautical Twilight 6:10 AM EDT 8:33 PM EDT
Astronomical Twilight 5:36 AM EDT 9:07 PM EDT
Moon 7:16 AM EDT (3/23) 8:55 PM EDT (3/23)
Length of Visible Light 13h 15m
Length of Day
12h 19m
New Moon, 1% of the Moon is Illuminated
Mar 23
New Moon
Mar 30
First Quarter
Apr 6
Full
Apr 13
Last Quarter
Apr 21
New

Hourly Weather History & Observations

Time (EDT) Temp. Dew Point Humidity Pressure Visibility Wind Dir Wind Speed Gust Speed Precip Events Conditions
12:54 AM 60.1 °F 52.0 °F 75% 30.11 in 9.0 mi East 4.6 mph - N/A   Scattered Clouds
1:54 AM 60.1 °F 53.1 °F 78% 30.11 in 9.0 mi East 4.6 mph - N/A   Partly Cloudy
2:54 AM 60.1 °F 53.1 °F 78% 30.11 in 8.0 mi NE 5.8 mph - N/A   Scattered Clouds
3:54 AM 60.1 °F 52.0 °F 75% 30.10 in 9.0 mi East 11.5 mph - N/A   Partly Cloudy
4:54 AM 57.9 °F 52.0 °F 81% 30.12 in 10.0 mi ENE 15.0 mph - N/A   Partly Cloudy
5:54 AM 57.0 °F 51.1 °F 81% 30.13 in 10.0 mi East 13.8 mph - N/A   Partly Cloudy
6:54 AM 55.9 °F 50.0 °F 80% 30.14 in 10.0 mi East 10.4 mph - N/A   Scattered Clouds
7:54 AM 55.9 °F 48.9 °F 77% 30.15 in 10.0 mi East 13.8 mph 19.6 mph N/A   Mostly Cloudy
8:54 AM 57.9 °F 48.0 °F 70% 30.16 in 10.0 mi ENE 13.8 mph - N/A   Mostly Cloudy
9:54 AM 60.1 °F 48.0 °F 64% 30.15 in 10.0 mi ENE 11.5 mph 20.7 mph N/A   Mostly Cloudy
10:54 AM 64.0 °F 50.0 °F 60% 30.13 in 10.0 mi ENE 15.0 mph - N/A   Mostly Cloudy
11:54 AM 66.9 °F 51.1 °F 57% 30.13 in 10.0 mi NE 12.7 mph - N/A   Overcast
12:54 PM 66.9 °F 52.0 °F 59% 30.12 in 10.0 mi ENE 16.1 mph - N/A   Overcast
1:54 PM 68.0 °F 50.0 °F 52% 30.10 in 10.0 mi ENE 18.4 mph 25.3 mph N/A   Overcast
2:54 PM 68.0 °F 46.0 °F 45% 30.07 in 10.0 mi ENE 16.1 mph - N/A   Overcast
3:54 PM 69.1 °F 43.0 °F 39% 30.05 in 10.0 mi ENE 19.6 mph - N/A   Overcast
4:54 PM 66.9 °F 41.0 °F 39% 30.03 in 10.0 mi ENE 19.6 mph 24.2 mph N/A   Overcast
5:54 PM 64.0 °F 42.1 °F 45% 30.03 in 10.0 mi ENE 20.7 mph - N/A   Overcast
6:54 PM 62.1 °F 39.9 °F 44% 30.03 in 10.0 mi ENE 17.3 mph - N/A   Overcast
7:54 PM 59.0 °F 39.0 °F 48% 30.02 in 10.0 mi ENE 15.0 mph - N/A   Overcast
8:54 PM 57.9 °F 37.9 °F 47% 30.03 in 10.0 mi East 18.4 mph - N/A   Mostly Cloudy
9:54 PM 57.9 °F 36.0 °F 44% 30.02 in 10.0 mi East 17.3 mph 25.3 mph N/A   Mostly Cloudy
10:54 PM 57.0 °F 35.1 °F 44% 30.02 in 10.0 mi East 20.7 mph 26.5 mph N/A   Mostly Cloudy
11:54 PM 57.0 °F 34.0 °F 42% 30.01 in 10.0 mi East 16.1 mph 26.5 mph N/A   Overcast